Change the Weather History Date:

Thursday, October 14, 2010

  Actual Average Record
Temperature  
Mean Temperature 72 °F 61 °F  
Max Temperature 94 °F 78 °F 98 °F (1906)
Min Temperature 50 °F 44 °F 32 °F (1966)
Degree Days  
Heating Degree Days 0 5  
Month to date heating degree days 17 47  
Since 1 July heating degree days 47 80  
Cooling Degree Days 7 1  
Month to date cooling degree days 30 19  
Year to date cooling degree days 778 832  
Growing Degree Days 22 (Base 50)    
Moisture  
Dew Point 45 °F    
Average Humidity 48    
Maximum Humidity 77    
Minimum Humidity 19    
Precipitation  
Precipitation 0.00 in 0.06 in 0.70 in (1908)
Month to date precipitation 0.02 0.36  
Year to date precipitation 32.60 24.33  
Since 1 July precipitation 0.12 0.95  
Snow  
Snow 0.00 in - - ()
Month to date snowfall 0.0  
Since 1 July snowfall 0.0  
Since 1 September snowfall 0.0  
Snow Depth 0.00 in    
Sea Level Pressure  
Sea Level Pressure 30.05 in    
Wind  
Wind Speed 1 mph (NE)    
Max Wind Speed 8 mph    
Max Gust Speed -    
Visibility 10 miles    
Events      
T = Trace of Precipitation, MM = Missing Value Source: NWS Daily Summary

Daily Weather History Graph

Daily Weather History Graph

Search for Another Location

Airport or City:

Trip Planner

Search our weather history database for the weather conditions in past years. The results will help you decide how hot, cold, wet, or windy it might be!

Date:

Astronomy

Oct. 14, 2010 Rise Set
Actual Time 7:21 AM PDT 6:35 PM PDT
Civil Twilight 6:54 AM PDT 7:02 PM PDT
Nautical Twilight 6:23 AM PDT 7:33 PM PDT
Astronomical Twilight 5:52 AM PDT 8:04 PM PDT
Moon 2:22 PM PDT (10/14) No Moon Set
Length of Visible Light 12h 07m
Length of Day
11h 13m
Waxing Crescent, 49% of the Moon is Illuminated
Oct 14
Waxing Crescent
Oct 14
First Quarter
Oct 22
Full
Oct 30
Last Quarter
Nov 5
New

Hourly Weather History & Observations

Time (PDT) Temp. Dew Point Humidity Pressure Visibility Wind Dir Wind Speed Gust Speed Precip Events Conditions
12:56 AM 55.0 °F 45.0 °F 69% 30.07 in 10.0 mi Calm Calm - N/A   Clear
1:56 AM 53.1 °F 44.1 °F 71% 30.07 in 10.0 mi Calm Calm - N/A   Clear
2:56 AM 52.0 °F 43.0 °F 71% 30.07 in 10.0 mi Calm Calm - N/A   Clear
3:56 AM 52.0 °F 44.1 °F 74% 30.07 in 10.0 mi Calm Calm - N/A   Clear
4:56 AM 52.0 °F 44.1 °F 74% 30.07 in 10.0 mi Calm Calm - N/A   Clear
5:56 AM 50.0 °F 43.0 °F 77% 30.08 in 10.0 mi Calm Calm - N/A   Clear
6:56 AM 53.1 °F 44.1 °F 71% 30.09 in 10.0 mi Calm Calm - N/A   Unknown
7:56 AM 55.0 °F 44.1 °F 67% 30.09 in 10.0 mi Calm Calm - N/A   Unknown
8:56 AM 60.1 °F 45.0 °F 57% 30.11 in 10.0 mi Calm Calm - N/A   Unknown
9:56 AM 69.1 °F 44.1 °F 40% 30.10 in 10.0 mi NNE 3.5 mph - N/A   Unknown
10:56 AM 75.0 °F 44.1 °F 33% 30.09 in 10.0 mi Calm Calm - N/A   Clear
11:56 AM 79.0 °F 45.0 °F 30% 30.07 in 10.0 mi Calm Calm - N/A   Unknown
12:56 PM 82.9 °F 42.1 °F 24% 30.05 in 10.0 mi Calm Calm - N/A   Clear
1:56 PM 87.1 °F 46.9 °F 25% 30.02 in 10.0 mi ESE 5.8 mph - N/A   Clear
2:56 PM 93.0 °F 45.0 °F 19% 30.00 in 10.0 mi Calm Calm - N/A   Clear
3:56 PM 91.0 °F 45.0 °F 20% 29.99 in 10.0 mi WNW 8.1 mph - N/A   Clear
4:56 PM 89.1 °F 45.0 °F 22% 29.98 in 10.0 mi West 4.6 mph - N/A   Clear
5:56 PM 82.9 °F 48.0 °F 29% 29.99 in 10.0 mi SE 3.5 mph - N/A   Clear
6:56 PM 77.0 °F 48.9 °F 37% 30.00 in 10.0 mi Calm Calm - N/A   Clear
7:56 PM 72.0 °F 46.9 °F 41% 30.02 in 10.0 mi Calm Calm - N/A   Clear
8:56 PM 71.1 °F 46.0 °F 41% 30.02 in 10.0 mi Calm Calm - N/A   Clear
9:56 PM 66.9 °F 46.9 °F 49% 30.04 in 10.0 mi Calm Calm - N/A   Clear
10:56 PM 64.0 °F 45.0 °F 50% 30.04 in 10.0 mi Calm Calm - N/A   Clear
11:56 PM 57.0 °F 48.9 °F 74% 30.03 in 10.0 mi Calm Calm - N/A   Clear